Tracking 19245 objects as of 14-Aug-2018
HD Live streaming from Space Station
objects crossing your sky now

FENGYUN 1C DEB

Track FENGYUN 1C DEB now!
10-day predictions


NORAD ID: 30483
Int'l Code: 1999-025AGV
Perigee: 517.0 km
Apogee: 657.9 km
Inclination: 99.0 °
Period: 96.3 minutes
Semi major axis: 6958 km
RCS: 0.0087 m2 (small)
Launch date: May 10, 1999
Source: People's Republic of China (PRC)
Launch site: Taiyaun Space Center, China (TSC)

Note: This is SATELLITE DEBRIS
aabbcc
Your satellite tracking list
Your tracking list is empty




NASA's NSSDC Master Catalog

Two Line Element Set (TLE):
1 30483U 99025AGV 18224.05805710 +.00002682 +00000-0 +22444-3 0  9993
2 30483 098.9827 252.9050 0101198 359.6916 000.4222 14.95666041614064
Source of the keplerian elements: AFSPC